Tracking 19246 objects as of 21-Sep-2018
HD Live streaming from Space Station
objects crossing your sky now

FENGYUN 1C DEB

Track FENGYUN 1C DEB now!
10-day predictions


NORAD ID: 35205
Int'l Code: 1999-025DPM
Perigee: 799.3 km
Apogee: 901.1 km
Inclination: 99.0 °
Period: 101.8 minutes
Semi major axis: 7221 km
RCS: 0.0051 m2 (small)
Launch date: May 10, 1999
Source: People's Republic of China (PRC)
Launch site: Taiyaun Space Center, China (TSC)

Note: This is SATELLITE DEBRIS
aabbcc
Your satellite tracking list
Your tracking list is empty




NASA's NSSDC Master Catalog

Two Line Element Set (TLE):
1 35205U 99025DPM 18260.44211507 +.00001182 +00000-0 +62144-3 0  9993
2 35205 098.9627 231.7134 0070460 093.8122 267.1110 14.14778170550391
Source of the keplerian elements: AFSPC